Weather History for Abingdon, VA

Change the Weather History Date:

Saturday, February 16, 2013

  Actual Average (KTRI) Record (KTRI)
Temperature  
Mean Temperature 30 °F 39 °F  
Max Temperature 33 °F 50 °F 72 °F (1954)
Min Temperature 25 °F 28 °F 3 °F (1958)
Degree Days  
Heating Degree Days 36 26  
Month to date heating degree days 438  
Since 1 July heating degree days 3092  
Cooling Degree Days 0 0  
Month to date cooling degree days 0  
Year to date cooling degree days 0  
Moisture  
Dew Point 24 °F    
Average Humidity 77    
Maximum Humidity 100    
Minimum Humidity 56    
Precipitation  
Precipitation 0.02 in 0.13 in 1.44 in (1990)
Month to date precipitation 2.00  
Year to date precipitation 5.37  
Snow  
Snow 0.00 in 0.20 in - ()
Month to date snowfall 2.1  
Since 1 July snowfall 9.5  
Snow Depth -    
Sea Level Pressure  
Sea Level Pressure 29.93 in    
Wind  
Wind Speed 5 mph (NNW)    
Max Wind Speed 17 mph    
Max Gust Speed 26 mph    
Visibility 9 miles    
Events Snow    
T = Trace of Precipitation, MM = Missing Value Source: NWS Daily Summary

Daily Weather History Graph

Daily Weather History Graph

Search for Another Location

Airport:

Trip Planner

Search our weather history database for the weather conditions in past years. The results will help you decide how hot, cold, wet, or windy it might be!

Date:

Astronomy

Feb. 16, 2013 Rise Set
Actual Time 7:14 AM EST 6:09 PM EST
Civil Twilight 6:48 AM EST 6:36 PM EST
Nautical Twilight 6:18 AM EST 7:06 PM EST
Astronomical Twilight 5:48 AM EST 7:36 PM EST
Moon 10:38 AM EST (2/16) No Moon Set
Length of Visible Light 11h 47m
Length of Day
10h 55m
Waxing Crescent, 39% of the Moon is Illuminated
Feb 16
Waxing Crescent
Feb 17
First Quarter
Feb 25
Full
Mar 4
Last Quarter
Mar 11
New

Hourly Weather History & Observations

Time (EST) Temp. Windchill Dew Point Humidity Pressure Visibility Wind Dir Wind Speed Gust Speed Precip Events Conditions
12:15 AM 34.0 °F - 33.1 °F 96% 30.02 in 10.0 mi Calm Calm - N/A   Overcast
12:35 AM 33.3 °F 28.9 °F 32.9 °F 99% 30.01 in 7.0 mi West 4.6 mph - N/A   Overcast
12:55 AM 33.1 °F 30.0 °F 32.9 °F 99% 30.00 in 7.0 mi West 3.5 mph - N/A   Overcast
1:15 AM 33.1 °F 30.0 °F 33.1 °F 100% 30.00 in 10.0 mi WNW 3.5 mph - N/A   Overcast
1:35 AM 32.9 °F 27.5 °F 32.0 °F 96% 30.00 in 10.0 mi NW 5.8 mph - N/A   Overcast
1:55 AM 33.1 °F 30.0 °F 31.6 °F 94% 29.99 in 10.0 mi WNW 3.5 mph - N/A   Overcast
2:15 AM 32.9 °F 29.8 °F 30.9 °F 92% 29.99 in 10.0 mi NW 3.5 mph - N/A   Overcast
2:35 AM 32.9 °F - 30.6 °F 91% 29.98 in 10.0 mi Calm Calm - N/A   Overcast
2:55 AM 32.5 °F - 30.4 °F 92% 29.97 in 10.0 mi Calm Calm - N/A   Mostly Cloudy
3:15 AM 32.0 °F - 31.1 °F 96% 29.97 in 10.0 mi Calm Calm - N/A   Scattered Clouds
3:35 AM 31.6 °F - 30.2 °F 94% 29.95 in 10.0 mi Calm Calm - N/A   Mostly Cloudy
3:55 AM 31.6 °F - 30.7 °F 96% 29.95 in 10.0 mi Calm Calm - N/A   Overcast
4:15 AM 32.0 °F - 30.4 °F 94% 29.95 in 10.0 mi Calm Calm - N/A   Overcast
4:35 AM 32.0 °F - 30.4 °F 94% 29.94 in 10.0 mi Calm Calm - N/A   Overcast
4:55 AM 31.8 °F - 31.6 °F 99% 29.94 in 5.0 mi Calm Calm - N/A Snow Light Snow
5:15 AM 32.0 °F 28.7 °F 31.6 °F 99% 29.94 in 5.0 mi North 3.5 mph - N/A Snow Light Snow
5:35 AM 32.0 °F 25.6 °F 30.7 °F 95% 29.93 in 5.0 mi North 6.9 mph - N/A Snow Light Snow
6:15 AM 32.0 °F 28.7 °F 28.8 °F 88% 29.93 in 10.0 mi North 3.5 mph - N/A   Unknown
6:35 AM 31.6 °F 28.3 °F 28.4 °F 88% 29.93 in 10.0 mi NW 3.5 mph - N/A   Mostly Cloudy
7:15 AM 31.5 °F 25.8 °F 26.8 °F 83% 29.92 in 10.0 mi North 5.8 mph - N/A   Mostly Cloudy
7:55 AM 30.9 °F 26.2 °F 25.7 °F 81% 29.93 in 10.0 mi North 4.6 mph - N/A   Scattered Clouds
8:15 AM 30.7 °F 27.3 °F 25.9 °F 82% 29.93 in 10.0 mi North 3.5 mph - N/A   Scattered Clouds
8:35 AM 31.1 °F - 25.7 °F 80% 29.93 in 10.0 mi Calm Calm - N/A   Mostly Cloudy
8:55 AM 31.1 °F 26.4 °F 26.1 °F 82% 29.93 in 10.0 mi NNW 4.6 mph - N/A   Scattered Clouds
9:15 AM 31.6 °F - 26.4 °F 81% 29.92 in 10.0 mi Calm Calm - N/A   Clear
9:35 AM 31.8 °F 25.4 °F 25.5 °F 78% 29.92 in 10.0 mi North 6.9 mph - N/A   Mostly Cloudy
9:55 AM 31.6 °F 26.0 °F 24.8 °F 76% 29.92 in 10.0 mi North 5.8 mph - N/A   Mostly Cloudy
10:15 AM 31.6 °F 23.7 °F 25.0 °F 76% 29.92 in 10.0 mi NNW 9.2 mph - N/A   Overcast
10:35 AM 31.5 °F 24.2 °F 25.0 °F 77% 29.92 in 10.0 mi North 8.1 mph - N/A   Overcast
12:55 PM 32.0 °F 22.5 °F 24.6 °F 74% 29.90 in 10.0 mi North 12.7 mph 17.3 mph N/A   Overcast
1:35 PM 32.5 °F 23.2 °F 22.5 °F 66% 29.89 in 10.0 mi NNW 12.7 mph 19.6 mph N/A   Overcast
1:55 PM 31.5 °F 21.8 °F 21.2 °F 66% 29.89 in 10.0 mi NNW 12.7 mph 19.6 mph N/A   Overcast
2:15 PM 32.0 °F 23.0 °F 18.9 °F 58% 29.89 in 10.0 mi North 11.5 mph 17.3 mph N/A   Mostly Cloudy
2:35 PM 32.0 °F 24.2 °F 19.2 °F 59% 29.89 in 10.0 mi North 9.2 mph 17.3 mph N/A   Mostly Cloudy
3:15 PM 31.5 °F 22.3 °F 18.9 °F 60% 29.89 in 10.0 mi NNW 11.5 mph - N/A   Overcast
3:35 PM 31.6 °F 23.1 °F 17.4 °F 56% 29.88 in 10.0 mi NNW 10.4 mph - N/A   Mostly Cloudy
3:55 PM 32.0 °F 24.8 °F 18.0 °F 56% 29.88 in 10.0 mi North 8.1 mph - N/A   Mostly Cloudy
4:15 PM 31.5 °F 21.4 °F 17.6 °F 57% 29.89 in 10.0 mi NNW 13.8 mph 19.6 mph N/A   Mostly Cloudy
4:35 PM 30.9 °F 21.7 °F 18.1 °F 59% 29.89 in 7.0 mi NNW 11.5 mph 17.3 mph N/A Snow Light Snow
4:55 PM 30.4 °F 21.5 °F 17.2 °F 58% 29.90 in 10.0 mi North 10.4 mph 16.1 mph N/A   Overcast
5:15 PM 30.2 °F 18.5 °F 16.5 °F 57% 29.90 in 7.0 mi North 17.3 mph 26.5 mph N/A   Overcast
5:35 PM 29.5 °F 21.8 °F 18.0 °F 62% 29.90 in 10.0 mi NW 8.1 mph - N/A   Scattered Clouds
6:15 PM 28.8 °F 19.0 °F 18.7 °F 66% 29.91 in 7.0 mi North 11.5 mph 18.4 mph N/A   Mostly Cloudy
6:35 PM 28.4 °F 19.1 °F 17.1 °F 63% 29.91 in 10.0 mi NNW 10.4 mph 16.1 mph N/A   Mostly Cloudy
6:55 PM 27.3 °F 19.1 °F 21.4 °F 78% 29.92 in 2.5 mi NNW 8.1 mph 23.0 mph N/A Snow Light Snow
7:35 PM 27.3 °F 17.1 °F 18.5 °F 69% 29.93 in 10.0 mi NW 11.5 mph 17.3 mph N/A   Mostly Cloudy
7:55 PM 27.0 °F 16.1 °F 19.4 °F 73% 29.93 in 10.0 mi NW 12.7 mph 17.3 mph N/A   Mostly Cloudy
8:15 PM 26.6 °F 18.2 °F 21.0 °F 79% 29.94 in 7.0 mi NW 8.1 mph - N/A Snow Light Snow
8:35 PM 26.4 °F 17.3 °F 18.5 °F 72% 29.94 in 10.0 mi NW 9.2 mph 18.4 mph N/A   Unknown
8:55 PM 26.6 °F 15.7 °F 16.7 °F 66% 29.94 in 10.0 mi NNW 12.7 mph 25.3 mph N/A   Scattered Clouds
9:15 PM 26.2 °F 15.2 °F 17.4 °F 69% 29.94 in 10.0 mi NNW 12.7 mph 19.6 mph N/A   Scattered Clouds
9:35 PM 25.9 °F 17.4 °F 17.4 °F 70% 29.95 in 10.0 mi NNW 8.1 mph 17.3 mph N/A   Scattered Clouds
10:15 PM 25.5 °F 15.5 °F 17.4 °F 71% 29.95 in 10.0 mi NNW 10.4 mph 18.4 mph N/A   Scattered Clouds
10:35 PM 25.7 °F 18.0 °F 17.1 °F 70% 29.95 in 10.0 mi NW 6.9 mph - N/A   Mostly Cloudy
10:55 PM 25.7 °F 17.1 °F 16.2 °F 67% 29.95 in 10.0 mi NNW 8.1 mph 17.3 mph N/A   Mostly Cloudy
11:15 PM 25.7 °F 17.1 °F 16.0 °F 67% 29.95 in 10.0 mi NNW 8.1 mph - N/A   Mostly Cloudy
11:35 PM 26.1 °F 16.8 °F 15.3 °F 64% 29.95 in 10.0 mi NNW 9.2 mph - N/A   Overcast
11:55 PM 25.7 °F 18.0 °F 14.0 °F 61% 29.95 in 10.0 mi NW 6.9 mph 16.1 mph N/A   Overcast